Showing default

TANAGER 4001, 60507

Orbit data source: Space-Track

TANAGER 4001, 60507 is a payload satellite owned by Planet (US) in SSO that was launched on Fri, 16 Aug 2024 UTC via an FALCON 9 launch vehicle from the Air Force Western Test Range (AFWTR). Payload-class satellites include a variety of spacecraft equipped with specific instruments for various scientific and technological missions. These include communications satellites like Starlink; space stations such as the ISS; scientific satellites like the Hubble; Earth observation satellites from companies like Planet Labs, Umbra, and HawkEye 360; GPS; miniature CubeSats for education and research; and military/defense satellites.

Loading next visibility...
Identifier
60507, 2024-149AR
Orbit
SSO
Country
Flag of USUS
Related business
Manufacturer
Planet
Mission
Operational Commercial Earth Obs Sci
Bus & Motor
TANAGER, Unknown motor
Mass
~150 kg wet, ~140 kg dry
Launch date (UTC)
2024-08-16 (1 year ago)
Launch vehicle
FALCON 9
Launch site
Air Force Western Test Range (AFWTR)
Object type
Payload
Rocket body
Debris
Shape & HBR
Box + 2 Pan, 1.0 m
Radar Cross Section
1.955 m², Medium (>0.1 m² and < 1m²)

Expand to show TLE details & history
Last TLE update: 1 day ago

TLE from 1 day ago
0 TANAGER 4001
1 60507U 24149AR  26033.94524737  .00031547  00000-0  70259-3 0  9999
2 60507  97.3832 126.8320 0006629 239.0294 121.0303 15.43536331 82325
Epoch: 2026-02-02T22:41Z
TLE epoch observation values (Epoch: 2026-02-02T22:41:09.372Z)
Latitude
-0.00004°
Longitude
13.4097°
Altitude
441.136 km
Speed
7.646 km/s
True Right ascension
08h 27m 19s
True Declination
0° 00' 00"
Sunlit
Object was in full shadow at epoch
Visualization orbit readout
Latitude
Unknown
Longitude
Unknown
Altitude
Unknown
Speed
Unknown
Apparent Right ascension
Unknown
Apparent Declination
Unknown
Sunlit
N/A
Visualization observer readout
Local Sidereal Time
02:53:04
Azimuth
Unknown
Elevation
Unknown
Doppler factor
Unknown
Orbital elements
Apogee altitude
437.131 km
Perigee altitude
428.101 km
Semi-major axis
6,810.753 km
Eccentricity
0.00066
Inclination
97.3832°
RAAN
126.832°
Arg. of periapsis
239.0294°
True anomaly
121.09536°
Mean anomaly
121.0303°
Eccentric anomaly
121.06283°
Mean motion
3.86145 °/min
Orbital period
93.23 mins
BSTAR
0.00070259
Loading maneuver chart data...
Computing Atmospheric mass density...
Loading historical data...
Loading historical data...
Loading historical data...
Loading historical data...
Loading historical data...
Loading historical data...
Loading historical data...

Documentation

Showing up to 5 results
|